Regional Weather Roundup
Issued by NWS Kansas City/Pleasant Hill, MO

Home | Current Version | Previous Version | Graphics & Text | Print | Product List | Glossary Off
Versions: 1 2 3 4 5 6 7 8 9 10 11 12 13 14 15 16 17 18 19 20 21 22 23 24 25 26 27 28

000
ASUS43 KEAX 281410
RWREAX

WEATHER ROUNDUP FOR EASTERN KANSAS AND NORTHWEST MISSOURI
NATIONAL WEATHER SERVICE KANSAS CITY/PLEASANT HILL MO
900 AM CDT TUE MAR 28 2017

KSZ040-057-103>105-MOZ028-029-037-043-281500-
...KANSAS CITY METROPOLITAN AREA...

CITY           SKY/WX    TMP DP  RH WIND       PRES   REMARKS
K.C. INTL      DRIZZLE   48  47  96 NE7       30.08R FOG
K.C. DOWNTOWN  CLOUDY    49  47  93 E8        30.07R FOG
LEES SUMMIT    CLOUDY    48  48 100 NE8       30.07R FOG
OLATHE - IXD   CLOUDY    49  46  90 NE5       30.07R FOG
OLATHE - OJC   CLOUDY    47  47 100 NE7       30.06R
LAWRENCE       CLOUDY    50  47  89 NE7       30.07R

$$

MOZ001>008-011>017-020>025-030>033-038>040-044>046-053-054-281500-
...NORTHERN AND CENTRAL MISSOURI...

CITY           SKY/WX    TMP DP  RH WIND       PRES   REMARKS
ST. JOSEPH     CLOUDY    49  46  90 E6        30.08R
MOSBY          CLOUDY    48  46  93 NE3       30.08R
WARRENSBURG    CLOUDY    48  46  93 NE5       30.06R FOG
WHITEMAN AFB   NOT AVBL
CLINTON        CLOUDY    50  50 100 NE6       30.06R FOG
SEDALIA        CLOUDY    51  50  96 E7        30.07R FOG
WARSAW         NOT AVBL
CHILLICOTHE      N/A     49  45  86 NE5       30.09R
KIRKSVILLE     CLOUDY    48  47  96 NE8       30.09R FOG

$$

MOZ041-047>049-056>058-063>065-088>090-097-281500-
...EASTERN AND SOUTHERN MISSOURI...

CITY           SKY/WX    TMP DP  RH WIND       PRES   REMARKS
ST. LOUIS INTL CLOUDY    54  48  80 NE6       30.07R
SPIRIT OF STL  CLOUDY    53  49  86 NE7       30.07R
COLUMBIA       CLOUDY    52  49  89 E8        30.06R
JEFFERSON CITY CLOUDY    54  48  80 E7        30.06S
ROLLA          CLOUDY    50  49  96 E10G25    30.05R
OSAGE BEACH    CLOUDY   N/A N/A N/A E6        30.07R
SPRINGFIELD    CLOUDY    52  50  93 SE3       30.03R
BRANSON        CLOUDY    52  50  93 CALM      30.05R
JOPLIN         CLOUDY    51  48  89 E8        30.05R
WEST PLAINS    CLOUDY    54  51  90 NE7       30.05R

$$

IAZ060-094-KSZ022-034>040-054-083-096-NEZ052-066-093-281500-
...KANSAS...SOUTHEAST NEBRASKA AND IOWA...

CITY           SKY/WX    TMP DP  RH WIND       PRES   REMARKS
TOPEKA         CLOUDY    50  45  83 NE5       30.07R
MANHATTAN      CLOUDY    48  44  86 NE3       30.07R
EMPORIA        CLOUDY    49  47  93 E7        30.06R
CHANUTE        CLOUDY    52  46  80 E5        30.06R
WICHITA        CLOUDY    50  45  83 E9        30.02S
OMAHA          CLOUDY    42  38  85 N6        30.10R
LINCOLN        CLOUDY    40  38  93 CALM      30.10R FOG
FALLS CITY     CLOUDY    47  43  86 E6        30.07S
LAMONI         CLOUDY    46  42  86 NE7       30.09R
DES MOINES     CLOUDY    48  42  80 N5        30.10R

$$





USA.gov is the U.S. government's official web portal to all federal, state and local government web resources and services.